Vertical_Velocity
1 1 -0 2 0 -1 1 -1 -2 -1 3 1 1 2 1 -2 4 1 0 0 0 0 -0 0 -2 -1 -0 0 0 -0 -1 1 1 -2 -0 1 0 1 2 3 1 0 1 1 1 -0 0 -0 -0
-0 -1 0 1 3 0 -1 1 -2 -3 2 0 2 1 -1 -2 -1 3 -0 1 2 1 -0 1 -0 -1 -1 -1 1 1 -1 -0 1 -2 -0 5 2 1 1 1 0 1 2 1 -0 -0 0 0 -1
-3 -3 1 -1 1 -3 -2 0 -3 0 -5 5 -2 0 -3 -1 -1 -1 2 -0 -0 1 -2 -0 -2 -0 -1 -1 -0 1 -1 1 1 -1 1 4 0 -1 0 1 -1 0 0 0 -1 0 -1 0 -1
-6 -4 0 -2 -1 3 -2 -5 6 1 5 -4 1 -3 -2 -1 -0 -0 1 -2 2 -1 -2 1 -2 -2 -0 1 -0 0 -0 -2 -0 -0 0 2 -0 -1 -1 -0 -1 1 0 1 -1 -0 -0 -1 -0
-3 -2 -0 -1 -2 0 0 8 -1 -5 -4 3 -1 1 -5 -2 -1 -0 2 -2 4 -3 1 2 -2 -3 0 1 1 0 -0 -1 1 0 -0 1 1 -1 -1 0 1 2 1 -1 -0 0 -0 0 -0
-4 0 -1 -2 0 3 6 -4 -2 1 3 0 -1 3 -2 -2 0 -0 2 -3 3 -2 1 2 -1 -2 -1 1 2 0 1 1 -0 1 -2 -0 0 -1 -0 1 0 -0 -1 0 0 1 -0 0 -0
-3 0 -3 -2 0 1 3 2 -3 9 3 4 -6 -7 3 1 -0 -2 -0 -1 0 -0 1 1 -1 -0 -2 -0 1 1 -0 0 1 0 -1 0 0 -0 0 -0 -1 0 1 0 1 -0 1 0 -0
2 -4 -4 -1 1 -2 0 2 1 -6 1 -6 -3 -6 3 -1 -1 -1 -1 -1 0 2 1 -1 -0 -1 -1 -1 -1 0 -0 0 0 -1 -2 -0 1 0 0 1 0 0 0 -0 -1 -0 -0 1 1
-4 -2 -4 -1 -0 -1 2 -0 1 -0 -6 1 -5 3 1 1 0 -3 0 -1 1 2 2 -0 -2 -1 -1 -0 -0 -1 -0 -2 -0 -0 -0 0 -1 1 -0 -0 0 2 1 0 -0 -0 -0 -1 0
1 -3 -4 1 0 -2 1 -4 -1 0 -0 -2 -0 3 -4 -4 -2 -0 -1 -1 2 2 1 -0 -0 -0 -1 -0 0 -1 -0 -1 0 0 0 -1 0 -1 -1 1 1 1 1 -0 0 1 1 1 0
-2 -15 4 2 -1 0 -3 -5 -8 0 -1 2 -3 2 -0 -2 -2 0 -2 0 0 3 1 -0 -1 0 1 1 -1 -0 -2 -1 1 1 -0 0 -0 0 1 1 1 1 1 0 1 1 1 1 1
-3 -6 -1 0 5 -6 -7 -3 -7 -5 1 3 -1 -6 -1 -1 -2 3 -2 -2 -1 1 2 2 -2 2 1 -0 -0 -0 -0 0 1 1 0 -0 -0 -1 -1 -0 1 1 1 1 0 0 -2 -2 -3
-3 -4 2 0 -4 -3 -3 -5 -2 -5 -0 -2 1 -2 -2 -3 2 2 0 -1 3 2 0 1 -1 1 -1 1 2 1 2 0 -0 -0 1 1 1 1 1 1 0 -1 -2 -1 2 2 2 2 2
-4 2 -6 -4 0 -3 -4 -0 -9 6 7 1 -5 -1 -1 -1 -2 1 2 -1 -2 -2 -2 -3 1 0 2 2 3 4 3 2 2 2 1 1 -1 -1 -0 1 1 2 0 1 0 0 -1 0 -0
1 -2 -3 -8 3 -10 7 -11 -19 10 4 1 -2 1 0 2 0 0 1 2 -1 3 1 2 0 2 3 1 -0 -0 -2 0 2 3 2 0 0 1 -1 -1 -0 2 2 1 -1 1 -1 -2 -0
3 4 -9 2 2 2 4 -25 3 0 1 3 0 1 1 1 1 -2 1 3 1 2 2 3 2 1 1 0 2 2 0 1 1 2 1 3 2 2 3 1 1 1 -1 1 -0 -0 0 -0 0
3 -3 -4 -7 6 2 2 -7 -1 -1 4 4 0 3 -0 -1 0 0 -2 -1 1 2 2 1 1 2 2 -0 2 2 1 1 1 -0 0 1 -1 -0 -1 -2 -2 -1 -3 -3 -1 -1 -2 -5 -2
-6 -3 -4 -5 4 2 3 -13 2 4 4 2 0 -0 1 -1 -3 -2 -0 -1 -0 -2 0 1 2 3 2 0 0 1 1 0 -0 0 0 -0 -1 -1 -3 -3 -2 -2 -3 -1 -1 -1 -2 -4 -1
7 -2 -1 -1 12 -5 1 -7 -3 2 2 1 -1 -3 -3 -1 1 2 3 1 -1 -1 -0 2 1 -0 -0 -0 0 2 1 1 2 0 -1 -1 -1 0 -0 -1 1 2 0 1 1 0 1 -2 1
3 1 -3 -1 4 -1 3 -6 -4 -4 -1 3 4 2 1 1 0 1 -0 -2 -1 -1 -1 -0 0 -0 -0 0 -0 -2 -2 0 -0 -0 -1 -1 -0 1 -1 -1 -0 1 -2 2 4 1 -0 -1 6
-2 -1 -3 -2 -5 9 2 -15 -3 -4 1 2 1 1 -2 0 1 1 3 2 -1 -1 1 1 0 0 -0 -1 0 -1 -1 -2 -2 -3 -1 -0 1 1 1 2 2 3 2 1 2 2 0 -2 3
-3 -1 5 -2 5 -1 4 -10 -8 -1 1 2 2 0 1 0 3 5 2 2 1 -1 -0 -2 -1 -2 -2 -1 -3 -3 -1 -1 0 1 1 -0 0 -0 1 0 -0 1 1 1 3 3 -0 1 1
-17 13 1 3 4 4 -3 4 -6 -0 -1 1 1 2 1 -0 2 5 3 1 1 -1 -3 -2 -2 -0 -0 -3 -4 -4 -5 -4 -2 -2 -2 -2 -2 -1 -0 -0 -0 0 1 0 -2 -0 2 1 0
9 1 2 5 2 2 -7 2 -9 -4 6 4 -0 -0 1 -0 2 4 2 2 -2 -3 -1 2 -0 -3 -4 -3 -3 -1 -0 -0 -0 1 2 2 2 3 2 0 -1 -2 -3 -3 -2 -0 0 -1 0
7 7 -1 -1 1 -8 2 5 -24 2 5 8 4 0 2 1 3 2 1 -2 -2 1 -2 -1 -3 -4 -3 -0 -0 -1 -2 -1 -1 -0 -1 -1 -1 0 1 1 2 3 3 2 1 2 2 1 -0
-5 2 -7 -4 -2 -4 5 -6 -9 1 -1 4 4 4 1 3 2 0 -2 -2 -0 -1 -1 -2 -3 -2 -0 -1 -2 -1 -0 0 1 -0 -1 -2 -3 -3 -2 -2 -1 -1 -0 0 0 2 3 3 6
-2 7 4 1 2 1 -1 -2 -3 0 -1 3 -2 -3 0 2 1 0 -1 -1 0 -0 -2 -1 1 1 -1 -2 -1 -1 -0 -0 -1 -2 -2 -0 -0 -1 -1 -2 -2 -2 -1 -2 -2 -1 -0 2 3
2 -1 3 -2 -1 -1 -2 -3 -6 1 2 1 -5 1 0 2 1 1 -2 1 -0 0 0 0 -0 0 1 -0 -1 -3 -3 -2 -1 0 -0 -1 -1 -1 -1 -1 -1 -0 0 -0 -0 0 3 0 5
0 2 3 1 1 -3 -1 -5 -2 -1 0 1 0 2 7 5 1 -3 -1 2 1 -0 -0 -1 -1 -1 -2 -2 -1 1 2 1 -0 -2 -3 -3 -2 -2 -2 -2 -0 -0 -1 -0 -1 -0 -2 -3 -2
6 -3 1 1 -3 0 1 -8 -1 3 -1 -6 4 7 4 5 -0 -3 -1 1 0 -1 -2 -2 -0 0 -0 1 1 -1 -0 0 -0 -1 -2 -3 -2 0 -2 -0 -0 1 1 1 -0 -4 -4 -4 -1
Height
3153 3152 3151 3152 3158 3154 3154 3156 3156 3157 3157 3156 3156 3156 3156 3155 3154 3156 3152 3150 3148 3146 3144 3141 3138 3136 3134 3131 3130 3129 3130 3129 3129 3130 3131 3131 3131 3131 3130 3130 3131 3131 3130 3129 3129 3128 3128 3127 3126
3153 3151 3151 3151 3152 3151 3153 3154 3155 3156 3156 3155 3155 3155 3155 3155 3153 3152 3152 3150 3148 3146 3143 3140 3138 3135 3133 3131 3130 3130 3130 3129 3129 3130 3130 3131 3130 3130 3129 3129 3129 3128 3129 3129 3128 3128 3126 3125 3125
3152 3150 3151 3150 3149 3149 3152 3152 3153 3154 3154 3155 3155 3154 3154 3154 3153 3152 3150 3149 3147 3145 3143 3140 3138 3135 3133 3131 3130 3130 3130 3130 3129 3130 3130 3130 3129 3129 3128 3128 3128 3128 3128 3128 3127 3126 3125 3124 3123
3150 3151 3151 3148 3148 3149 3150 3152 3152 3152 3153 3153 3153 3153 3153 3153 3152 3152 3151 3148 3146 3145 3143 3140 3138 3136 3133 3132 3131 3131 3131 3130 3129 3129 3130 3128 3128 3128 3128 3127 3127 3127 3127 3127 3125 3124 3123 3122 3121
3149 3150 3148 3146 3147 3148 3149 3149 3149 3150 3151 3152 3152 3152 3152 3152 3151 3152 3151 3148 3146 3144 3142 3140 3138 3136 3134 3133 3131 3131 3131 3131 3129 3129 3129 3128 3128 3127 3127 3126 3126 3126 3125 3124 3124 3123 3122 3120 3119
3149 3149 3147 3146 3146 3147 3147 3147 3146 3147 3149 3150 3151 3150 3151 3151 3150 3151 3150 3148 3146 3144 3142 3140 3138 3137 3135 3133 3132 3131 3131 3130 3129 3129 3128 3127 3126 3125 3125 3125 3124 3123 3123 3123 3122 3122 3120 3119 3118
3147 3147 3146 3145 3145 3145 3146 3145 3144 3144 3146 3148 3149 3149 3150 3150 3149 3149 3149 3147 3146 3144 3143 3140 3138 3137 3135 3134 3132 3130 3129 3129 3128 3127 3126 3125 3125 3124 3122 3122 3121 3121 3121 3121 3120 3120 3118 3117 3116
3145 3146 3145 3144 3143 3144 3143 3142 3142 3143 3144 3145 3147 3147 3148 3148 3148 3147 3147 3146 3145 3143 3142 3140 3139 3138 3135 3134 3133 3131 3130 3128 3128 3125 3125 3124 3123 3121 3121 3121 3120 3120 3119 3118 3117 3116 3115 3114 3112
3143 3145 3142 3142 3141 3141 3141 3141 3141 3142 3142 3143 3144 3144 3145 3146 3146 3146 3145 3145 3144 3142 3142 3140 3139 3137 3135 3134 3132 3131 3130 3128 3127 3125 3125 3124 3121 3120 3120 3120 3119 3118 3117 3116 3114 3113 3112 3110 3109
3140 3139 3139 3141 3140 3138 3138 3139 3140 3140 3139 3141 3142 3141 3142 3143 3143 3143 3142 3143 3142 3140 3140 3138 3137 3136 3134 3133 3132 3131 3130 3128 3126 3125 3124 3122 3120 3119 3118 3118 3116 3115 3115 3114 3112 3110 3109 3107 3106
3134 3135 3139 3139 3138 3136 3135 3136 3136 3137 3138 3138 3138 3139 3139 3139 3140 3140 3140 3140 3139 3139 3138 3136 3135 3134 3133 3131 3130 3129 3127 3127 3126 3123 3121 3120 3119 3118 3116 3115 3114 3113 3112 3110 3108 3107 3105 3104 3102
3131 3134 3136 3136 3136 3134 3134 3133 3132 3133 3136 3136 3136 3135 3136 3137 3137 3137 3138 3137 3136 3136 3136 3134 3133 3132 3130 3129 3128 3127 3125 3124 3123 3121 3119 3117 3116 3115 3114 3113 3112 3110 3108 3106 3104 3102 3100 3099 3097
3127 3131 3133 3133 3133 3132 3131 3130 3129 3128 3133 3134 3133 3132 3132 3133 3134 3134 3133 3134 3133 3132 3131 3130 3129 3128 3127 3126 3124 3123 3122 3121 3120 3120 3117 3115 3114 3112 3111 3109 3108 3106 3104 3103 3101 3098 3097 3095 3094
3126 3129 3129 3129 3129 3128 3126 3125 3125 3126 3130 3128 3127 3128 3129 3130 3130 3129 3129 3129 3129 3128 3127 3125 3125 3125 3124 3122 3120 3118 3118 3118 3117 3117 3115 3113 3111 3110 3108 3107 3105 3104 3101 3099 3097 3095 3093 3091 3089
3125 3125 3126 3126 3127 3125 3124 3119 3118 3124 3121 3120 3122 3124 3125 3126 3126 3126 3126 3127 3125 3125 3125 3124 3122 3121 3119 3118 3116 3115 3114 3114 3114 3113 3112 3109 3108 3107 3105 3104 3102 3100 3098 3095 3093 3091 3088 3086 3084
3121 3123 3123 3124 3124 3122 3121 3112 3118 3119 3118 3118 3119 3120 3121 3122 3122 3123 3123 3123 3122 3122 3121 3120 3118 3116 3115 3114 3112 3111 3110 3109 3109 3108 3107 3106 3104 3102 3100 3098 3097 3094 3091 3089 3087 3084 3082 3079 3077
3118 3119 3120 3121 3120 3118 3117 3114 3115 3115 3116 3117 3116 3116 3118 3119 3120 3120 3119 3119 3118 3117 3116 3115 3113 3113 3111 3110 3109 3107 3106 3104 3103 3102 3102 3101 3098 3095 3092 3091 3090 3088 3085 3082 3080 3077 3074 3072 3069
3113 3116 3118 3118 3119 3116 3115 3112 3114 3114 3114 3114 3114 3115 3116 3116 3116 3116 3115 3114 3113 3113 3112 3111 3110 3109 3108 3107 3105 3104 3102 3101 3099 3098 3096 3094 3092 3089 3086 3084 3083 3081 3078 3076 3074 3070 3067 3064 3061
3113 3115 3116 3116 3117 3113 3112 3110 3110 3111 3110 3111 3111 3113 3113 3112 3112 3111 3111 3110 3111 3111 3110 3109 3107 3106 3104 3103 3102 3100 3099 3097 3095 3093 3091 3089 3086 3084 3081 3079 3077 3074 3071 3069 3066 3062 3059 3056 3053
3110 3112 3114 3115 3114 3112 3109 3107 3107 3106 3105 3107 3108 3108 3108 3108 3108 3108 3108 3108 3108 3107 3106 3105 3103 3102 3101 3100 3099 3097 3096 3094 3092 3089 3086 3083 3081 3078 3075 3072 3069 3066 3063 3061 3058 3054 3050 3046 3045
3106 3109 3111 3114 3112 3111 3108 3101 3100 3101 3101 3102 3103 3103 3104 3105 3105 3105 3106 3105 3105 3104 3104 3103 3102 3100 3099 3098 3096 3094 3092 3090 3088 3085 3082 3079 3075 3072 3069 3066 3063 3060 3055 3054 3050 3046 3041 3036 3036
3104 3108 3111 3112 3112 3109 3108 3100 3096 3095 3096 3097 3098 3099 3101 3102 3104 3104 3104 3104 3103 3103 3103 3101 3100 3099 3097 3094 3092 3089 3087 3085 3082 3080 3077 3074 3070 3067 3064 3060 3057 3053 3049 3046 3043 3039 3033 3029 3024
3102 3107 3110 3110 3109 3107 3106 3106 3091 3091 3091 3093 3095 3097 3099 3101 3103 3103 3103 3102 3102 3100 3100 3099 3096 3094 3092 3089 3087 3084 3081 3079 3077 3074 3072 3068 3064 3061 3057 3053 3049 3045 3041 3037 3032 3029 3025 3021 3015
3103 3105 3108 3108 3108 3103 3101 3103 3087 3086 3086 3090 3093 3095 3097 3100 3102 3102 3101 3101 3100 3099 3098 3097 3094 3091 3088 3085 3082 3079 3077 3074 3072 3069 3066 3063 3059 3055 3051 3047 3043 3038 3033 3028 3024 3020 3015 3011 3006
3099 3103 3106 3108 3106 3100 3096 3095 3085 3086 3086 3088 3091 3094 3096 3098 3099 3099 3099 3099 3098 3097 3095 3093 3090 3087 3084 3081 3078 3075 3072 3070 3067 3064 3061 3058 3054 3051 3046 3041 3037 3031 3026 3021 3015 3009 3005 3000 2995
3093 3098 3099 3103 3103 3096 3093 3088 3082 3083 3083 3085 3088 3092 3094 3096 3097 3097 3097 3096 3095 3094 3092 3089 3085 3082 3079 3076 3074 3071 3068 3065 3061 3057 3054 3049 3045 3040 3036 3031 3026 3021 3016 3010 3004 2998 2994 2988 2983
3089 3092 3098 3097 3096 3096 3088 3084 3081 3081 3082 3082 3085 3089 3092 3094 3094 3094 3093 3093 3092 3090 3087 3085 3081 3078 3075 3071 3068 3065 3062 3060 3056 3052 3046 3041 3036 3031 3026 3020 3015 3011 3005 2999 2992 2986 2981 2976 2969
3086 3092 3095 3097 3097 3094 3084 3081 3078 3079 3080 3081 3083 3086 3090 3091 3091 3091 3091 3091 3089 3086 3083 3080 3076 3073 3070 3067 3064 3060 3057 3052 3048 3043 3039 3034 3028 3022 3016 3010 3004 2997 2992 2986 2980 2974 2969 2962 2957
3082 3084 3088 3092 3091 3090 3089 3080 3078 3077 3078 3081 3083 3086 3089 3088 3088 3088 3088 3087 3084 3081 3078 3075 3072 3068 3064 3061 3057 3053 3049 3045 3040 3035 3030 3023 3017 3011 3004 2998 2991 2985 2978 2973 2967 2961 2955 2949 2944
3079 3082 3085 3085 3087 3086 3085 3080 3078 3078 3077 3080 3083 3086 3086 3086 3085 3085 3084 3082 3079 3076 3073 3069 3066 3062 3058 3055 3051 3047 3042 3037 3032 3026 3020 3013 3007 3001 2994 2987 2981 2974 2968 2961 2955 2949 2943 2938 2933